Regional Weather Roundup
Issued by NWS Little Rock, AR

Home | Current Version | Previous Version | Graphics & Text | Print | Product List | Glossary On
Versions: 1 2 3 4 5 6 7 8 9 10 11 12 13 14 15 16 17 18 19 20 21 22 23 24 25 26 27 28 29 30 31 32
000
ASUS44 KLZK 070205
RWRLZK

WEATHER ROUNDUP FOR ARKANSAS
NATIONAL WEATHER SERVICE LITTLE ROCK AR
800 PM CST TUE DEC 06 2016

NOTE: "FAIR" INDICATES FEW OR NO CLOUDS BELOW 12,000 FEET WITH NO
SIGNIFICANT WEATHER AND/OR OBSTRUCTIONS TO VISIBILITY.

ARZ001-003-010-029-070300-
NORTHWEST ARKANSAS

CITY           SKY/WX    TMP DP  RH WIND       PRES   REMARKS
FAYETTEVILLE   CLOUDY    37  26  64 N5        30.10S
FORT SMITH     MOCLDY    43  31  62 N6        30.08S
HARRISON       PTCLDY    37  30  75 NW5       30.10R
BENTONVILLE    CLOUDY    37  19  48 NE6       30.11R
ROGERS         MOCLDY    35  24  64 NE3       30.11R
SILOAM SPGS    CLOUDY    36  25  64 NE3       30.10S
HIGHFILL       MOCLDY    36  26  67 NE5       30.10S
SPRINGDALE     CLEAR     37  25  60 NE6       30.11S
$$

ARZ004-005-016-070300-
NORTH CENTRAL ARKANSAS

CITY           SKY/WX    TMP DP  RH WIND       PRES   REMARKS
BATESVILLE     PTCLDY    43  34  70 NW6       30.09R
FLIPPIN        CLOUDY    41  25  52 NW5       30.08R
MTN HOME       PTCLDY    38  29  70 VRB5      30.09R
$$

ARZ040-041-070300-
WEST CENTRAL ARKANSAS

CITY           SKY/WX    TMP DP  RH WIND       PRES   REMARKS
MENA           CLOUDY    46  45  93 CALM      30.05S
MOUNT IDA      CLOUDY    45  42  89 CALM      30.03R
$$

ARZ009-017-025-026-028-070300-
NORTHEAST ARKANSAS

CITY           SKY/WX    TMP DP  RH WIND       PRES   REMARKS
CORNING        FAIR      39  36  87 NW7       30.11R
JONESBORO      CLEAR     42  36  79 N8        30.09R
NEWPORT        CLEAR     41  37  86 N13       30.10R
WALNUT RIDGE   CLEAR     39  32  75 N6        30.10R
BLYTHEVILLE    PTCLDY    41  37  86 N8        30.07R
$$

ARZ022-023-033-042-044-070300-
CENTRAL ARKANSAS

CITY           SKY/WX    TMP DP  RH WIND       PRES   REMARKS
LITTLE ROCK    MOCLDY    44  40  85 N8        30.07R
N LITTLE ROCK    N/A     43  39  86 N6        30.09R
JACKSONVILLE   PTCLDY    44  40  85 N5        30.06R
SEARCY         CLEAR     43  38  82 N12       30.09R
HOT SPRINGS    PTCLDY    45  42  89 CALM      30.05R
RUSSELLVILLE   PTCLDY    44  36  73 N7        30.08R
CLINTON        FAIR      41  37  87 CALM      30.09R
$$

ARZ036-070300-
EAST ARKANSAS

CITY           SKY/WX    TMP DP  RH WIND       PRES   REMARKS
WEST MEMPHIS   CLEAR     40  39  97 CALM      30.03R FOG
$$

ARZ050-053-066-070-073-070300-
SOUTHWEST ARKANSAS

CITY           SKY/WX    TMP DP  RH WIND       PRES   REMARKS
ARKADELPHIA    MOCLDY    43  43 100 CALM      30.06R
CAMDEN         CLOUDY    48  45  87 CALM      30.05R
TEXARKANA      CLOUDY    48  47  96 CALM      30.05R
EL DORADO      CLOUDY    49  47  93 CALM      30.04S
DE QUEEN       MOCLDY    50  43  77 CALM      30.03F
$$

ARZ056-057-069-070300-
SOUTHEAST ARKANSAS

CITY           SKY/WX    TMP DP  RH WIND       PRES   REMARKS
PINE BLUFF     MOCLDY    46  43  89 CALM      30.05R
STUTTGART      CLEAR     46  37  71 N10       30.06R
MONTICELLO     PTCLDY    43  41  93 CALM      30.04R FOG

$$






USA.gov is the U.S. government's official web portal to all federal, state and local government web resources and services.